SAS320T EKCH-LKPR

Flight info

Callsign SAS320T
Flight time N/A
Altitude 41000
Route EKCH/04R N0482F410 SALO1A SALLO M44 KOGIM M725 MASOR DCT LUROS M725 HDO DCT GOLOP GOLO4T LKPR/06
Aircraft A359/H-SDE2E3GHIJ3J4J5LM1ORWXY/LB1D1

Departure

Time 2026-05-05 17:18
Airport Copenhagen Kastrup Airport (EKCH)

Arrival

Time N/A
Airport Václav Havel Airport Prague (LKPR)
Time Latitude Longitude Altitude Speed Heading
2026-05-05 16:26 55.62363 12.65070 30 ft 0 kts 276°
2026-05-05 17:07 55.62362 12.65086 30 ft 4 kts 272°
2026-05-05 17:07 55.62363 12.65133 29 ft 4 kts 255°
2026-05-05 17:07 55.62373 12.65176 27 ft 4 kts 230°
2026-05-05 17:07 55.62393 12.65201 30 ft 4 kts 184°
2026-05-05 17:08 55.62402 12.65202 29 ft 0 kts 178°
2026-05-05 17:12 55.62392 12.65202 30 ft 5 kts 179°
2026-05-05 17:12 55.62325 12.65199 30 ft 15 kts 184°
2026-05-05 17:12 55.62197 12.65171 30 ft 14 kts 196°
2026-05-05 17:13 55.62186 12.65165 30 ft 0 kts 197°
2026-05-05 17:13 55.62179 12.65157 30 ft 6 kts 212°
2026-05-05 17:14 55.62088 12.65039 30 ft 26 kts 213°
2026-05-05 17:14 55.61924 12.64850 30 ft 25 kts 212°
2026-05-05 17:14 55.61771 12.64676 30 ft 28 kts 213°
2026-05-05 17:14 55.61603 12.64480 30 ft 30 kts 213°
2026-05-05 17:15 55.61419 12.64266 30 ft 33 kts 213°
2026-05-05 17:15 55.61218 12.64045 30 ft 35 kts 213°
2026-05-05 17:15 55.61010 12.63800 30 ft 37 kts 213°
2026-05-05 17:15 55.60791 12.63548 30 ft 39 kts 213°
2026-05-05 17:16 55.60583 12.63274 30 ft 25 kts 219°
2026-05-05 17:16 55.60457 12.63127 30 ft 20 kts 187°
2026-05-05 17:16 55.60355 12.63260 31 ft 7 kts 128°
2026-05-05 17:16 55.60351 12.63269 32 ft 4 kts 127°
2026-05-05 17:17 55.60353 12.63358 32 ft 12 kts 53°
2026-05-05 17:17 55.60443 12.63504 30 ft 22 kts 40°
2026-05-05 17:17 55.60682 12.63875 32 ft 83 kts 41°
2026-05-05 17:17 55.61302 12.64836 32 ft 152 kts 41°
2026-05-05 17:18 55.62175 12.66221 481 ft 177 kts 39°
2026-05-05 17:18 55.63148 12.67660 1355 ft 188 kts 36°
2026-05-05 17:18 55.64198 12.69082 2072 ft 196 kts 37°
2026-05-05 17:18 55.65290 12.70782 2423 ft 221 kts 40°
2026-05-05 17:19 55.66484 12.72648 2945 ft 235 kts 39°
2026-05-05 17:19 55.67746 12.74560 3668 ft 241 kts 38°
2026-05-05 17:19 55.69038 12.76503 4415 ft 246 kts 38°
2026-05-05 17:19 55.70365 12.78489 5123 ft 253 kts 38°
2026-05-05 17:20 55.71647 12.80690 5811 ft 261 kts 50°
2026-05-05 17:20 55.72451 12.83610 6474 ft 271 kts 74°
2026-05-05 17:20 55.72430 12.86981 6843 ft 281 kts 103°
2026-05-05 17:20 55.71489 12.89995 6928 ft 282 kts 134°
2026-05-05 17:21 55.69848 12.91843 6976 ft 283 kts 166°
2026-05-05 17:21 55.67901 12.92060 7402 ft 281 kts 191°
2026-05-05 17:21 55.65989 12.91439 8252 ft 278 kts 195°
2026-05-05 17:22 55.62128 12.91588 9858 ft 286 kts 175°
2026-05-05 17:22 55.60142 12.91850 10396 ft 291 kts 186°
2026-05-05 17:22 55.58066 12.92355 10629 ft 315 kts 166°
2026-05-05 17:22 55.55961 12.93778 10935 ft 332 kts 162°
2026-05-05 17:23 55.53775 12.95310 11306 ft 342 kts 165°
2026-05-05 17:23 55.51532 12.96830 11771 ft 348 kts 165°
2026-05-05 17:23 55.49258 12.98391 12301 ft 353 kts 165°
2026-05-05 17:23 55.46965 12.99983 12850 ft 356 kts 165°
2026-05-05 17:24 55.44654 13.01595 13362 ft 359 kts 165°
2026-05-05 17:24 55.42313 13.03231 13895 ft 363 kts 165°
2026-05-05 17:24 55.39965 13.04871 14364 ft 365 kts 165°
2026-05-05 17:24 55.37595 13.06527 14853 ft 368 kts 165°
2026-05-05 17:25 55.35210 13.08191 15362 ft 370 kts 166°
2026-05-05 17:25 55.34400 13.08755 15518 ft 371 kts 166°
2026-05-05 17:25 55.30394 13.11544 16329 ft 375 kts 166°
2026-05-05 17:25 55.27961 13.13235 16810 ft 377 kts 166°
2026-05-05 17:26 55.25512 13.14935 17276 ft 380 kts 166°
2026-05-05 17:26 55.23050 13.16641 17747 ft 382 kts 166°
2026-05-05 17:26 55.20566 13.18360 18215 ft 385 kts 166°
2026-05-05 17:26 55.18069 13.20087 18613 ft 387 kts 166°
2026-05-05 17:27 55.15552 13.21825 19011 ft 390 kts 166°
2026-05-05 17:27 55.13883 13.22977 19273 ft 391 kts 166°
2026-05-05 17:27 55.11348 13.24724 19669 ft 393 kts 166°
2026-05-05 17:27 55.08786 13.26486 20047 ft 395 kts 166°
2026-05-05 17:28 55.06225 13.28246 20436 ft 397 kts 166°
2026-05-05 17:28 55.03637 13.30021 20777 ft 401 kts 166°
2026-05-05 17:28 55.01038 13.31801 21143 ft 403 kts 166°
2026-05-05 17:28 54.98419 13.33595 21521 ft 405 kts 166°
2026-05-05 17:29 54.95786 13.35395 21898 ft 408 kts 167°
2026-05-05 17:29 54.93134 13.37181 22274 ft 409 kts 168°
2026-05-05 17:29 54.90427 13.38569 22659 ft 405 kts 176°
2026-05-05 17:29 54.87657 13.39503 22978 ft 406 kts 175°
2026-05-05 17:30 54.84868 13.40384 23405 ft 408 kts 175°
2026-05-05 17:30 54.82066 13.41243 23771 ft 410 kts 176°
2026-05-05 17:30 54.79245 13.42062 24137 ft 411 kts 176°
2026-05-05 17:30 54.76422 13.42871 24478 ft 413 kts 177°
2026-05-05 17:31 54.73578 13.43666 24830 ft 415 kts 177°
2026-05-05 17:31 54.70726 13.44448 25203 ft 416 kts 177°
2026-05-05 17:31 54.67864 13.45230 25603 ft 417 kts 178°
2026-05-05 17:31 54.64987 13.46000 26018 ft 419 kts 178°
2026-05-05 17:32 54.62101 13.46764 26450 ft 420 kts 178°
2026-05-05 17:32 54.59205 13.47528 26887 ft 422 kts 178°
2026-05-05 17:32 54.56290 13.48297 27340 ft 424 kts 178°
2026-05-05 17:32 54.53400 13.49063 27796 ft 427 kts 178°
2026-05-05 17:33 54.50461 13.49854 28244 ft 429 kts 178°
2026-05-05 17:33 54.47517 13.50642 28825 ft 428 kts 178°
2026-05-05 17:33 54.44566 13.51420 29305 ft 431 kts 178°
2026-05-05 17:33 54.41591 13.52197 29781 ft 433 kts 178°
2026-05-05 17:34 54.38557 13.52989 30222 ft 436 kts 178°
2026-05-05 17:34 54.35589 13.53765 30624 ft 439 kts 178°
2026-05-05 17:34 54.32556 13.54558 31000 ft 443 kts 178°
2026-05-05 17:34 54.29500 13.55358 31385 ft 445 kts 178°
2026-05-05 17:35 54.26426 13.56163 31782 ft 448 kts 178°
2026-05-05 17:35 54.23338 13.56971 32124 ft 450 kts 178°
2026-05-05 17:35 54.20238 13.57783 32548 ft 452 kts 178°
2026-05-05 17:35 54.17124 13.58597 32934 ft 454 kts 178°
2026-05-05 17:36 54.13983 13.59416 33281 ft 456 kts 179°
2026-05-05 17:36 54.10841 13.60233 33642 ft 459 kts 179°
2026-05-05 17:36 54.07676 13.61055 33966 ft 461 kts 179°
2026-05-05 17:36 54.04501 13.61879 34255 ft 463 kts 178°
2026-05-05 17:37 54.01302 13.62722 34471 ft 466 kts 178°
2026-05-05 17:37 53.98092 13.63555 34782 ft 467 kts 178°
2026-05-05 17:37 53.94882 13.64382 35139 ft 467 kts 178°
2026-05-05 17:37 53.91669 13.65207 35479 ft 467 kts 178°
2026-05-05 17:38 53.88454 13.66031 35837 ft 467 kts 177°
2026-05-05 17:38 53.85237 13.66855 36172 ft 468 kts 177°
2026-05-05 17:38 53.82052 13.67669 36507 ft 468 kts 177°
2026-05-05 17:38 53.78790 13.68503 36837 ft 469 kts 176°
2026-05-05 17:39 53.75560 13.69327 37138 ft 470 kts 176°
2026-05-05 17:39 53.72367 13.70140 37403 ft 471 kts 176°
2026-05-05 17:39 53.69124 13.70965 37632 ft 473 kts 176°
2026-05-05 17:39 53.65854 13.71795 37830 ft 476 kts 176°
2026-05-05 17:40 53.62581 13.72626 38142 ft 476 kts 175°
2026-05-05 17:40 53.59306 13.73456 38477 ft 476 kts 175°
2026-05-05 17:40 53.56032 13.74285 38732 ft 476 kts 175°
2026-05-05 17:40 53.52758 13.75113 38963 ft 476 kts 175°
2026-05-05 17:41 53.49481 13.75939 39199 ft 476 kts 175°
2026-05-05 17:41 53.46204 13.76764 39390 ft 477 kts 175°
2026-05-05 17:41 53.42923 13.77588 39576 ft 477 kts 175°
2026-05-05 17:41 53.39637 13.78413 39765 ft 478 kts 175°
2026-05-05 17:42 53.36340 13.79239 39968 ft 478 kts 175°
2026-05-05 17:42 53.33048 13.80063 40175 ft 479 kts 175°
2026-05-05 17:42 53.29747 13.80888 40373 ft 479 kts 175°
2026-05-05 17:42 53.26451 13.81710 40577 ft 479 kts 175°
2026-05-05 17:43 53.23151 13.82532 40763 ft 479 kts 175°
2026-05-05 17:43 53.19851 13.83353 40865 ft 481 kts 175°
2026-05-05 17:43 53.16540 13.84176 40862 ft 480 kts 175°
2026-05-05 17:44 53.09937 13.85813 40858 ft 480 kts 175°
2026-05-05 17:44 53.03353 13.87448 40853 ft 480 kts 175°
2026-05-05 17:45 52.96714 13.89085 40853 ft 480 kts 175°
2026-05-05 17:45 52.90101 13.90704 40848 ft 480 kts 175°
2026-05-05 17:46 52.83506 13.92317 40836 ft 478 kts 175°
2026-05-05 17:46 52.76925 13.93924 40849 ft 478 kts 175°
2026-05-05 17:47 52.70387 13.95514 40838 ft 478 kts 175°
2026-05-05 17:47 52.63810 13.97109 40828 ft 478 kts 175°
2026-05-05 17:48 52.57227 13.98701 40833 ft 478 kts 175°
2026-05-05 17:48 52.50651 14.00288 40830 ft 478 kts 175°
2026-05-05 17:49 52.44074 14.01869 40831 ft 478 kts 175°
2026-05-05 17:49 52.37496 14.03446 40816 ft 477 kts 175°
2026-05-05 17:50 52.30938 14.05014 40820 ft 476 kts 175°
2026-05-05 17:50 52.24382 14.06576 40814 ft 476 kts 175°
2026-05-05 17:51 52.17830 14.08132 40811 ft 476 kts 175°
2026-05-05 17:51 52.11279 14.09683 40809 ft 475 kts 175°
2026-05-05 17:52 52.04735 14.11229 40810 ft 475 kts 175°
2026-05-05 17:52 51.98199 14.12771 40807 ft 475 kts 175°
2026-05-05 17:53 51.91654 14.14306 40808 ft 475 kts 175°
2026-05-05 17:53 51.85106 14.15837 40804 ft 475 kts 174°
2026-05-05 17:54 51.78565 14.17364 40770 ft 475 kts 174°
2026-05-05 17:54 51.75299 14.18125 40530 ft 474 kts 175°
2026-05-05 17:54 51.72030 14.18886 40290 ft 474 kts 175°
2026-05-05 17:54 51.68770 14.19643 40046 ft 474 kts 175°
2026-05-05 17:55 51.65510 14.20399 39788 ft 473 kts 175°
2026-05-05 17:55 51.62251 14.21155 39561 ft 472 kts 175°
2026-05-05 17:55 51.59010 14.21905 39342 ft 471 kts 175°
2026-05-05 17:55 51.55772 14.22654 39100 ft 469 kts 175°
2026-05-05 17:56 51.52558 14.23398 38642 ft 465 kts 175°
2026-05-05 17:56 51.49360 14.24136 37951 ft 464 kts 175°
2026-05-05 17:56 51.46176 14.24869 37274 ft 461 kts 175°
2026-05-05 17:56 51.43014 14.25621 36619 ft 457 kts 175°
2026-05-05 17:57 51.39876 14.26373 35959 ft 454 kts 174°
2026-05-05 17:57 51.36755 14.27091 35293 ft 453 kts 175°
2026-05-05 17:57 51.33643 14.27794 34590 ft 452 kts 175°
2026-05-05 17:57 51.30519 14.28498 33812 ft 453 kts 175°
2026-05-05 17:58 51.27396 14.29222 32948 ft 454 kts 174°
2026-05-05 17:58 51.24273 14.29963 32122 ft 454 kts 174°
2026-05-05 17:58 51.21145 14.30678 31299 ft 454 kts 175°
2026-05-05 17:58 51.18016 14.31365 30575 ft 453 kts 175°
2026-05-05 17:59 51.14952 14.32034 30034 ft 448 kts 175°
2026-05-05 17:59 51.11842 14.32391 29300 ft 452 kts 185°
2026-05-05 17:59 51.08697 14.31892 28203 ft 457 kts 190°
2026-05-05 17:59 51.05637 14.30578 27044 ft 457 kts 204°
2026-05-05 18:00 51.02948 14.28023 25915 ft 443 kts 219°
2026-05-05 18:00 51.00898 14.24510 24830 ft 428 kts 235°
2026-05-05 18:00 50.99616 14.20310 23809 ft 422 kts 251°
2026-05-05 18:00 50.99175 14.15719 22688 ft 422 kts 267°
2026-05-05 18:01 50.99610 14.11118 21526 ft 423 kts 284°
2026-05-05 18:01 51.00883 14.06912 20396 ft 424 kts 301°
2026-05-05 18:01 51.02878 14.03480 19346 ft 425 kts 319°
2026-05-05 18:01 51.05417 14.01128 18302 ft 423 kts 336°
2026-05-05 18:02 51.08261 14.00067 17185 ft 421 kts 354°
2026-05-05 18:02 51.11168 14.00392 16067 ft 417 kts 12°
2026-05-05 18:02 51.13821 14.02109 15322 ft 410 kts 31°
2026-05-05 18:02 51.15968 14.05045 14905 ft 408 kts 51°
2026-05-05 18:03 51.17407 14.08893 14792 ft 404 kts 70°
2026-05-05 18:03 51.18011 14.13210 14778 ft 398 kts 89°
2026-05-05 18:03 51.17736 14.17547 14781 ft 392 kts 107°
2026-05-05 18:03 51.16626 14.21470 14782 ft 387 kts 126°
2026-05-05 18:04 51.14815 14.24573 14783 ft 382 kts 143°
2026-05-05 18:04 51.12672 14.27044 14776 ft 380 kts 150°
2026-05-05 18:04 51.10333 14.28997 14596 ft 380 kts 157°
2026-05-05 18:04 51.07881 14.30528 14365 ft 377 kts 162°
2026-05-05 18:05 51.05385 14.31773 14125 ft 374 kts 165°
2026-05-05 18:05 51.02871 14.32789 13879 ft 373 kts 168°
2026-05-05 18:05 51.00333 14.33594 13640 ft 371 kts 171°
2026-05-05 18:05 50.97781 14.34187 13380 ft 370 kts 174°
2026-05-05 18:06 50.95221 14.34552 13112 ft 369 kts 177°
2026-05-05 18:06 50.94390 14.34623 13024 ft 368 kts 178°
2026-05-05 18:06 50.90125 14.34617 12585 ft 364 kts 183°
2026-05-05 18:06 50.87609 14.34310 12326 ft 362 kts 186°
2026-05-05 18:07 50.85118 14.33779 12071 ft 360 kts 189°
2026-05-05 18:07 50.82663 14.33029 11815 ft 359 kts 192°
2026-05-05 18:07 50.80243 14.32064 11554 ft 358 kts 195°
2026-05-05 18:07 50.77860 14.30882 11299 ft 357 kts 198°
2026-05-05 18:08 50.75544 14.29499 11078 ft 356 kts 201°
2026-05-05 18:08 50.73289 14.27914 10816 ft 354 kts 204°
2026-05-05 18:08 50.71099 14.26131 10562 ft 354 kts 207°
2026-05-05 18:08 50.68981 14.24159 10323 ft 354 kts 211°
2026-05-05 18:09 50.66941 14.22011 10088 ft 351 kts 214°
2026-05-05 18:09 50.64995 14.19701 9835 ft 349 kts 217°
2026-05-05 18:09 50.63171 14.17398 9754 ft 330 kts 214°
2026-05-05 18:09 50.61234 14.15698 9747 ft 307 kts 201°
2026-05-05 18:10 50.59297 14.14587 9745 ft 287 kts 197°
2026-05-05 18:10 50.57416 14.13738 9750 ft 278 kts 194°
2026-05-05 18:10 50.55544 14.13010 9745 ft 276 kts 193°
2026-05-05 18:10 50.53671 14.12327 9743 ft 277 kts 192°
2026-05-05 18:11 50.51826 14.11665 9748 ft 276 kts 192°
2026-05-05 18:11 50.49949 14.10983 9749 ft 277 kts 193°
2026-05-05 18:11 50.48075 14.10288 9750 ft 276 kts 193°
2026-05-05 18:11 50.46202 14.09583 9738 ft 277 kts 192°
2026-05-05 18:12 50.44355 14.08890 9577 ft 269 kts 194°
2026-05-05 18:12 50.42530 14.08196 8993 ft 273 kts 194°
2026-05-05 18:12 50.40679 14.07483 8455 ft 274 kts 193°
2026-05-05 18:12 50.38839 14.06780 8073 ft 270 kts 193°
2026-05-05 18:13 50.37016 14.06083 7584 ft 270 kts 192°
2026-05-05 18:13 50.35199 14.05384 7171 ft 267 kts 192°
2026-05-05 18:13 50.33397 14.04692 6742 ft 266 kts 191°
2026-05-05 18:13 50.31623 14.04061 6474 ft 254 kts 187°
2026-05-05 18:14 50.29945 14.03716 6217 ft 234 kts 183°
2026-05-05 18:14 50.28384 14.03427 5984 ft 218 kts 183°
2026-05-05 18:14 50.26944 14.03167 5800 ft 200 kts 183°
2026-05-05 18:14 50.25617 14.02934 5625 ft 185 kts 182°
2026-05-05 18:15 50.24788 14.02793 5527 ft 177 kts 182°
2026-05-05 18:15 50.23242 14.02537 5331 ft 161 kts 181°
2026-05-05 18:15 50.22160 14.02477 5182 ft 150 kts 171°
2026-05-05 18:15 50.21558 14.02939 4994 ft 145 kts 131°
2026-05-05 18:16 50.21372 14.04861 4758 ft 136 kts 83°
2026-05-05 18:16 50.21408 14.05835 4580 ft 131 kts 99°
2026-05-05 18:16 50.20853 14.06940 4312 ft 134 kts 137°
2026-05-05 18:16 50.20260 14.08007 4064 ft 129 kts 123°
2026-05-05 18:17 50.19605 14.08976 3819 ft 132 kts 137°
2026-05-05 18:17 50.18851 14.09817 3555 ft 135 kts 135°
2026-05-05 18:17 50.18025 14.10518 3375 ft 138 kts 152°
2026-05-05 18:17 50.17206 14.11276 3209 ft 138 kts 139°